Regional Weather Roundup
Issued by NWS

Home | Current Version | Previous Version | Graphics & Text | Print | Product List | Glossary On
Versions: 1 2 3 4 5 6 7 8 9 10 11 12 13 14 15 16 17 18 19 20 21 22 23 24 25 26 27 28 29 30 31 32 33 34 35 36 37 38 39 40 41 42 43 44 45 46 47 48 49 50
000
ASUS43 KOAX 281002
RWRNE

WEATHER ROUNDUP FOR NEBRASKA
NATIONAL WEATHER SERVICE OMAHA NE
500 AM CDT SAT MAR 28 2015

NOTES: SATELLITE DATA IS BEING USED TO AUGMENT CLOUD COVER ABOVE
       12000 FEET.
       "FAIR" INDICATES FEW OR NO CLOUDS BELOW 12,000 FEET WITH NO
       SIGNIFICANT WEATHER AND/OR OBSTRUCTIONS TO VISIBILITY.

  * THESE STATIONS DO NOT REPORT WEATHER SUCH AS RAIN...SNOW OR FOG.

NEZ001>004-019>022-054>056-281100-
NEBRASKA PANHANDLE

CITY           SKY/WX    TMP DP  RH WIND       PRES   REMARKS
SCOTTSBLUFF    CLEAR     36  29  75 N5        29.99F WCI  32
ALLIANCE       CLEAR     30  26  85 W7        29.97F WCI  23
CHADRON        CLEAR     35  30  82 SW7       29.95F WCI  29
KIMBALL        CLEAR     37  27  69 W6        30.01S WCI  32
SIDNEY         CLEAR     40  28  62 W10       30.00F WCI  33
$$

NEZ057>060-069>072-079>082-281100-
SOUTHWEST NEBRASKA

CITY           SKY/WX    TMP DP  RH WIND       PRES   REMARKS
NORTH PLATTE   CLEAR     30  29  96 NW6       29.96S WCI  24
IMPERIAL         N/A     34  27  75 CALM      29.97F
LEXINGTON      CLEAR     29  26  87 CALM      29.97S
MCCOOK         PTCLDY    36  31  82 SW5       29.95F WCI  32
OGALLALA       CLEAR     34  31  88 W8        29.98R WCI  27
$$

NEZ005>010-023>029-035>040-094-281100-
NORTH CENTRAL NEBRASKA

CITY           SKY/WX    TMP DP  RH WIND       PRES   REMARKS
VALENTINE      CLEAR     27  24  89 W3        29.98S
AINSWORTH      CLEAR     35  29  80 NE7       29.97S WCI  29
BROKEN BOW     CLEAR     33  30  88 N6        29.97R WCI  28
O`NEILL        MOCLDY    33  29  88 S6        30.00S WCI  27
ORD            PTCLDY    23  19  85 CALM      29.99R
$$

NEZ041-046>049-061>064-073>077-083>087-281100-
SOUTH CENTRAL NEBRASKA

CITY           SKY/WX    TMP DP  RH WIND       PRES   REMARKS
GRAND ISLAND   PTCLDY    29  24  82 E5        30.02S WCI  24
AURORA         CLOUDY    32  27  80 E6        30.01S WCI  27
HASTINGS       CLEAR     26  22  84 NE7       29.99R WCI  18
HEBRON         CLOUDY    34  24  67 CALM      30.01R
HOLDREGE       CLEAR     29  24  79 CALM      29.97R
KEARNEY *      CLEAR     27  21  80 NE6       29.99S WCI  20
YORK           CLOUDY    32  27  80 E7        30.04R WCI  26
$$

NEZ011>018-030>034-042>045-281100-
NORTHEAST NEBRASKA

CITY           SKY/WX    TMP DP  RH WIND       PRES   REMARKS
NORFOLK        PTCLDY    30  24  78 SE10      30.04S WCI  21
ALBION         MOCLDY    32  26  77 SE6       30.02S WCI  26
BLAIR          CLOUDY    34  27  77 E8        30.08S WCI  27
COLUMBUS *     CLOUDY    32  19  59 E6        30.07S WCI  26
FREMONT        CLEAR     33  26  75 E8        30.08S WCI  26
TEKAMAH        CLOUDY    34  26  72 SE13      30.11R WCI  25
WAYNE          CLEAR     27  22  82 SE3       30.07S
$$

NEZ050>053-065>068-078-088>093-281100-
SOUTHEAST NEBRASKA

CITY           SKY/WX    TMP DP  RH WIND       PRES   REMARKS
LINCOLN        CLOUDY    35  24  64 E8        30.08R WCI  29
OMAHA EPPLEY   MOCLDY    34  27  75 SE10      30.11S WCI  26
FALLS CITY     CLOUDY    36  27  69 E10       30.09S WCI  28
NEBRASKA CITY  CLOUDY    33  27  79 E8        30.09S WCI  26
PLATTSMOUTH    MOCLDY    32  26  79 E9        30.09S WCI  24
$$

NEZ044-045-051>053-067-281100-
OMAHA AREA

CITY           SKY/WX    TMP DP  RH WIND       PRES   REMARKS
OMAHA EPPLEY   MOCLDY    34  27  75 SE10      30.11S WCI  26
BLAIR          CLOUDY    34  27  77 E8        30.08S WCI  27
FREMONT        CLEAR     33  26  75 E8        30.08S WCI  26
MILLARD        PTCLDY    33  27  76 SE7       30.10R WCI  27
OFFUTT AFB     CLOUDY    34  26  74 SE8       30.10R WCI  27
PLATTSMOUTH    MOCLDY    32  26  79 E9        30.09S WCI  24
WAHOO          FAIR      32  25  74 E8        30.08R WCI  25
$$



USA.gov is the U.S. government's official web portal to all federal, state and local government web resources and services.